User: anonymous   Login
Location: Unspecified
(0.0000°N, 0.0000°E)
Time: 08:57:31
(UTC+00:00)
Language:

DMSP B5D2-7 - Orbit

View from above orbital plane
View from above orbital plane
View from above satellite
View from above satellite

Ground track
Ground track

The orbit data is extracted from the following two-line orbital elements,

1 23233U 94057A   17091.67575331 0.00000030  00000-0  15330-4 0    05
2 23233  99.0766  97.3388 0009000 124.8576 235.1423 14.15627412    05
Epoch (UTC): 01 April 2017 16:13:05
Eccentricity: 0.0009000
inclination: 99.0766°
perigee height: 833 km
apogee height: 846 km
right ascension of ascending node: 97.3388°
argument of perigee: 124.8576°
revolutions per day: 14.15627412
mean anomaly at epoch: 235.1423°
orbit number at epoch: 0

The dashed part of the orbit path shows where the satellite is in the earth's shadow,  

DLR